This is the latest recevied weather packets stored in our database for station/object HA3YA-WX. If no packets are shown the sender has not sent any weather packets the latest 10 day(s).
| Time | Temp. | Humidity | Pressure | Rain* | Wind** | Luminosity | Snow |
|---|---|---|---|---|---|---|---|
| 1777393292 | 19.44° C | 37% | 1004.9 hPa | - | - | - | - |
| 1777392693 | 19.44° C | 37% | 1004.9 hPa | - | - | - | - |
| 1777392093 | 19.44° C | 37% | 1005 hPa | - | - | - | - |
| 1777391492 | 20° C | 36% | 1005 hPa | - | - | - | - |
| 1777390893 | 20° C | 37% | 1005 hPa | - | - | - | - |
| 1777390292 | 20° C | 36% | 1005 hPa | - | - | - | - |
| 1777389693 | 20.56° C | 36% | 1005 hPa | - | - | - | - |
| 1777389092 | 20.56° C | 35% | 1005 hPa | - | - | - | - |
| 1777388493 | 20.56° C | 34% | 1004 hPa | - | - | - | - |
| 1777387892 | 21.11° C | 33% | 1004 hPa | - | - | - | - |
| 1777387293 | 21.11° C | 33% | 1005 hPa | - | - | - | - |
| 1777386693 | 21.11° C | 33% | 1005 hPa | - | - | - | - |
| 1777386092 | 20.56° C | 30% | 1005 hPa | - | - | - | - |
| 1777385493 | 21.11° C | 30% | 1005.3 hPa | - | - | - | - |
| 1777384892 | 21.67° C | 31% | 1005 hPa | - | - | - | - |
| 1777384293 | 21.67° C | 30% | 1005 hPa | - | - | - | - |
| 1777383692 | 21.67° C | 29% | 1005 hPa | - | - | - | - |
| 1777383092 | 22.78° C | 29% | 1005 hPa | - | - | - | - |
| 1777382492 | 22.22° C | 29% | 1005 hPa | - | - | - | - |
| 1777381893 | 22.78° C | 30% | 1005.9 hPa | - | - | - | - |
| 1777381293 | 22.78° C | 31% | 1005 hPa | - | - | - | - |
| 1777380692 | 21.67° C | 30% | 1005 hPa | - | - | - | - |
| 1777380092 | 21.67° C | 30% | 1006 hPa | - | - | - | - |
| 1777379492 | 21.67° C | 31% | 1006 hPa | - | - | - | - |
| 1777378893 | 21.67° C | 32% | 1006 hPa | - | - | - | - |
* Rain since midnight (hover to see other rain measurements)
** Current wind speed in m/s (hover to see current wind gust speed)